1514354400.77,33081,8.81,72108.0,-8.29,-35.35,-35.29,0,*57
1514354402.03,33082,8.81,72102.0,-8.35,-35.23,-35.59,0,*59
1514354403.31,33083,8.81,72096.3,-8.35,-34.53,-34.83,0,*58
1514354404.59,33084,8.81,72098.3,-8.35,-34.35,-34.83,0,*5F
1514354405.89,33085,8.81,72094.0,-8.35,-34.35,-34.65,0,*56
1514354407.15,33086,8.81,72082.5,-8.35,-34.31,-34.71,0,*54
1514354408.42,33087,8.81,72080.8,-8.35,-33.89,-34.35,0,*51
1514354409.7,33088,8.81,72078.0,-8.35,-32.97,-34.31,0,*54
1514354410.91,33089,8.81,72084.3,-8.33,-33.21,-35.01,0,*5D
1514354412.15,33090,8.81,72078.5,-8.37,-33.89,-35.01,0,*53
1514354413.41,33091,8.81,72080.0,-8.35,-34.47,-35.07,0,*53
1514354414.63,33092,8.81,72078.3,-8.37,-34.71,-35.17,0,*56
1514354415.87,33093,8.81,72076.3,-8.37,-34.71,-35.23,0,*50
1514354417.15,33094,8.81,72082.0,-8.35,-35.41,-35.35,0,*50
1514354418.4,33095,8.81,72080.3,-8.37,-35.35,-35.23,0,*57
1514354419.65,33096,8.81,72076.8,-8.37,-35.23,-35.23,0,*53
1514354420.91,33097,8.81,72072.5,-8.37,-35.35,-35.35,0,*52
1514354422.19,33098,8.81,72082.0,-8.35,-35.35,-35.23,0,*58
1514354423.46,33099,8.81,72088.3,-8.35,-35.41,-35.23,0,*5A
1514354424.69,33100,8.81,72090.3,-8.37,-35.53,-35.17,0,*5D
1514354425.91,33101,8.75,72086.8,-8.37,-35.53,-35.01,0,*5B
1514354427.17,33102,8.81,72100.3,-8.37,-35.35,-34.53,0,*5E
1514354428.4,33103,8.81,72112.8,-8.37,-35.23,-34.13,0,*5C
1514354429.63,33104,8.81,72120.8,-8.37,-34.89,-33.73,0,*5B
1514354430.86,33105,8.81,72124.3,-8.37,-34.25,-32.97,0,*57
1514354432.09,33106,8.81,72128.8,-8.37,-33.15,-32.29,0,*55
1514354433.31,33107,8.81,72120.5,-8.37,-31.29,-30.83,0,*5B
1514354434.58,33108,8.81,72110.5,-8.37,-31.57,-30.73,0,*52
1514354435.82,33109,8.75,72110.3,-8.37,-30.95,-29.83,0,*5B
1514354437.05,33110,8.81,72094.8,-8.37,-30.01,-28.69,0,*5B
1514354438.29,33111,8.75,72090.5,-8.37,-28.85,-27.39,0,*55
1514354439.55,33112,8.81,72094.3,-8.39,-27.29,-25.81,0,*50
1514354440.79,33113,8.81,72102.0,-8.39,-26.03,-24.47,0,*53
1514354442.01,33114,8.75,72094.8,-8.39,-25.35,-23.39,0,*5C
1514354443.3,33115,8.81,72094.8,-8.39,-24.87,-21.67,0,*5C
1514354444.55,33116,8.75,72092.0,-8.37,-23.85,-19.23,0,*5F
1514354445.76,33117,8.81,72082.8,-8.37,-22.67,-18.07,0,*54
1514354446.99,33118,8.81,72064.3,-8.39,-21.47,-17.49,0,*51
1514354448.23,33119,8.81,72070.5,-8.37,-19.91,-17.03,0,*50
1514354449.49,33120,8.81,72080.3,-8.37,-18.55,-16.69,0,*5E
1514354450.72,33121,8.75,72086.0,-8.37,-19.23,-18.49,0,*53
1514354451.94,33122,8.81,72084.8,-8.37,-21.77,-21.93,0,*57
1514354453.14,33123,8.75,72068.8,-8.37,-24.97,-24.61,0,*55
1514354454.4,33124,8.81,72084.3,-8.37,-24.67,-23.85,0,*50
1514354455.62,33125,8.81,72076.0,-8.37,-22.57,-22.53,0,*5E
1514354456.88,33126,8.81,72062.5,-8.37,-21.57,-22.21,0,*5B
1514354458.13,33127,8.81,72066.5,-8.35,-20.35,-22.03,0,*5D
1514354459.35,33128,8.81,72074.8,-8.37,-22.41,-23.95,0,*5F
1514354460.61,33129,8.75,72074.3,-8.37,-26.13,-25.29,0,*5C
1514354461.85,33130,8.75,72074.3,-8.37,-26.81,-24.51,0,*51
1514354463.11,33131,8.75,72078.5,-8.35,-24.15,-25.39,0,*52
1514354464.35,33132,8.75,72088.5,-8.37,-27.45,-28.31,0,*50
1514354465.6,33133,8.81,72080.5,-8.37,-31.45,-31.95,0,*50
1514354466.86,33134,8.81,72072.5,-8.37,-31.73,-31.39,0,*54
1514354468.1,33135,8.75,72066.8,-8.37,-31.23,-31.79,0,*54
1514354469.36,33136,8.81,72076.5,-8.37,-30.17,-29.89,0,*57
1514354470.6,33137,8.81,72080.5,-8.37,-29.01,-29.61,0,*5F
1514354471.85,33138,8.75,72072.8,-8.37,-30.55,-31.11,0,*57
1514354473.11,33139,8.75,72078.5,-8.37,-34.35,-34.65,0,*52
1514354474.36,33140,8.75,72076.3,-8.37,-35.41,-35.23,0,*5D
1514354475.63,33141,8.81,72080.5,-8.39,-35.83,-35.89,0,*5C
1514354476.87,33142,8.75,72066.5,-8.39,-36.01,-36.01,0,*55
1514354478.1,33143,8.81,72080.0,-8.39,-35.71,-35.71,0,*54
1514354479.33,33144,8.75,72084.0,-8.39,-35.71,-35.71,0,*53
1514354480.62,33145,8.75,72084.0,-8.39,-35.83,-35.83,0,*52
1514354481.89,33146,8.75,72080.8,-8.39,-35.83,-36.01,0,*58
1514354483.1,33147,8.75,72078.3,-8.41,-35.89,-36.01,0,*5C
1514354484.32,33148,8.81,72076.3,-8.41,-35.71,-35.89,0,*57
1514354485.56,33149,8.81,72086.5,-8.39,-35.89,-36.01,0,*5D
1514354486.81,33150,8.81,72080.3,-8.41,-35.83,-35.89,0,*53
1514354488.04,33151,8.75,72078.0,-8.41,-35.71,-35.83,0,*55
1514354489.25,33152,8.75,72080.8,-8.41,-35.71,-35.71,0,*5B
1514354490.48,33153,8.81,72090.0,-8.41,-35.41,-35.47,0,*5C
1514354491.73,33154,8.75,72094.8,-8.41,-35.41,-35.41,0,*5D
1514354492.95,33155,8.81,72096.3,-8.41,-35.13,-35.29,0,*55
1514354494.2,33156,8.81,72096.0,-8.41,-35.41,-35.41,0,*5F
1514354495.44,33157,8.81,72092.5,-8.41,-35.29,-35.41,0,*50
1514354496.66,33158,8.81,72104.3,-8.41,-35.65,-35.59,0,*5E
1514354497.87,33159,8.75,72106.5,-8.41,-35.59,-35.47,0,*5F
1514354499.12,33160,8.75,72088.5,-8.41,-35.41,-35.41,0,*5A
1514354500.35,33161,8.75,72090.5,-8.39,-35.59,-35.47,0,*5B
1514354501.59,33162,8.75,72104.8,-8.39,-35.47,-35.47,0,*57
1514354502.8,33163,8.75,72094.0,-8.41,-35.47,-35.47,0,*59
1514354504.03,33164,8.75,72090.8,-8.41,-35.29,-35.23,0,*54
1514354505.29,33165,8.75,72092.0,-8.41,-35.65,-35.83,0,*57
1514354506.55,33166,8.75,72090.0,-8.39,-35.71,-35.83,0,*5E
1514354507.78,33167,8.75,72092.5,-8.41,-35.71,-35.83,0,*50
1514354509.03,33168,8.81,72100.5,-8.41,-35.83,-36.01,0,*5B
1514354510.27,33169,8.81,72088.5,-8.41,-35.83,-35.89,0,*59
1514354511.54,33170,8.75,72098.0,-8.43,-35.77,-35.95,0,*55
1514354512.81,33171,8.75,72098.0,-8.43,-35.53,-35.53,0,*58
1514354514.09,33172,8.75,72110.3,-8.43,-35.65,-35.53,0,*5E
1514354515.36,33173,8.75,72104.0,-8.43,-35.53,-35.35,0,*5A
1514354516.62,33174,8.75,72108.0,-8.43,-35.47,-35.53,0,*58
1514354517.86,33175,8.75,72108.3,-8.41,-35.07,-35.13,0,*5B
1514354519.11,33176,8.75,72114.0,-8.41,-35.23,-35.23,0,*5D
1514354520.35,33177,8.75,72102.5,-8.39,-34.71,-34.89,0,*54
1514354521.56,33178,8.75,72114.3,-8.41,-35.13,-35.13,0,*53
1514354522.84,33179,8.75,72118.5,-8.39,-34.95,-35.07,0,*57
1514354524.06,33180,8.75,72108.5,-8.41,-35.29,-35.47,0,*5C
1514354525.27,33181,8.75,72120.3,-8.41,-35.29,-35.29,0,*55
1514354526.48,33182,8.75,72128.0,-8.41,-34.71,-34.89,0,*51
1514354527.72,33183,8.75,72120.0,-8.39,-34.77,-34.89,0,*59
1514354528.94,33184,8.75,72130.3,-8.41,-34.71,-34.77,0,*56
1514354530.21,33185,8.75,72130.5,-8.39,-34.35,-34.35,0,*5E
1514354531.5,33186,8.75,72130.0,-8.39,-34.19,-34.01,0,*54
1514354532.76,33187,8.75,72128.8,-8.39,-34.31,-34.13,0,*5C
1514354534.02,33188,8.75,72136.8,-8.39,-34.31,-33.95,0,*5A
1514354535.25,33189,8.75,72136.3,-8.39,-33.67,-33.21,0,*50
1514354536.48,33190,8.75,72140.0,-8.37,-33.37,-32.97,0,*5F
1514354537.75,33191,8.75,72138.3,-8.35,-31.45,-31.61,0,*51
1514354539.04,33192,8.75,72136.0,-8.35,-29.29,-30.73,0,*53
1514354540.26,33193,8.75,72130.3,-8.37,-27.93,-30.83,0,*50
1514354541.56,33194,8.75,72126.3,-8.35,-29.35,-31.95,0,*51
1514354542.8,33195,8.75,72130.0,-8.37,-31.45,-32.45,0,*52
1514354544.03,33196,8.75,72126.0,-8.37,-34.07,-32.63,0,*56
1514354545.3,33197,8.75,72120.5,-8.37,-34.65,-31.73,0,*51
1514354546.54,33198,8.75,72118.8,-8.37,-34.31,-30.67,0,*5B
1514354547.75,33199,8.75,72114.5,-8.37,-33.21,-29.61,0,*52
1514354549.01,33200,8.75,72112.5,-8.37,-31.91,-28.63,0,*5B
1514354550.27,33201,8.75,72114.5,-8.37,-30.51,-28.09,0,*5B
1514354551.52,33202,8.75,72112.0,-8.37,-29.13,-28.43,0,*58
1514354552.78,33203,8.75,72102.8,-8.37,-28.79,-29.17,0,*54
1514354554.07,33204,8.75,72088.5,-8.39,-28.91,-30.89,0,*54
1514354555.33,33205,8.81,72086.0,-8.39,-29.17,-32.23,0,*58
1514354556.63,33206,8.75,72080.8,-8.39,-29.39,-33.43,0,*50
1514354557.85,33207,8.75,72072.8,-8.39,-30.23,-33.95,0,*59
1514354559.11,33208,8.75,72056.0,-8.41,-31.61,-34.35,0,*53
1514354560.39,33209,8.75,72058.8,-8.39,-33.61,-35.07,0,*5F
1514354561.63,33210,8.75,72066.3,-8.41,-34.95,-35.47,0,*50
1514354562.84,33211,8.75,72088.0,-8.41,-35.29,-35.59,0,*58
1514354564.05,33212,8.81,72092.8,-8.41,-35.47,-36.01,0,*5D
1514354565.26,33213,8.75,72096.5,-8.41,-35.89,-36.19,0,*57
1514354566.47,33214,8.75,72092.3,-8.41,-35.89,-36.19,0,*50
1514354567.67,33215,8.75,72110.3,-8.41,-35.89,-36.07,0,*5E
1514354568.91,33216,8.75,72096.0,-8.43,-35.77,-35.77,0,*5A
1514354570.17,33217,8.75,72088.8,-8.43,-35.47,-35.65,0,*5B
1514354571.43,33218,8.75,72082.8,-8.43,-35.47,-35.53,0,*51
1514354572.67,33219,8.75,72076.5,-8.43,-35.53,-35.71,0,*55
1514354573.92,33220,8.75,72068.5,-8.43,-35.53,-35.71,0,*5F
1514354575.16,33221,8.75,72078.8,-8.43,-35.71,-35.89,0,*59
1514354576.43,33222,8.75,72072.5,-8.43,-35.77,-35.95,0,*51
1514354577.65,33223,8.75,72098.0,-8.41,-35.71,-35.89,0,*59
1514354578.88,33224,8.75,72106.0,-8.41,-35.59,-35.83,0,*5E
1514354580.09,33225,8.75,72100.5,-8.41,-34.89,-35.29,0,*53
1514354581.32,33226,8.75,72104.8,-8.41,-34.59,-35.29,0,*5D
1514354582.55,33227,8.75,72108.3,-8.41,-33.43,-34.59,0,*56
1514354583.78,33228,8.75,72106.5,-8.39,-32.39,-34.71,0,*50
1514354585.03,33229,8.75,72110.0,-8.43,-31.51,-34.41,0,*52
1514354586.29,33230,8.81,72114.8,-8.41,-31.95,-34.53,0,*53
1514354587.55,33231,8.75,72094.0,-8.39,-32.75,-34.77,0,*56
1514354588.81,33232,8.75,72098.0,-8.39,-33.49,-34.89,0,*5A
1514354590.07,33233,8.75,72102.0,-8.39,-34.19,-35.13,0,*5B
1514354591.33,33234,8.75,72100.3,-8.39,-34.35,-35.13,0,*52
1514354592.59,33235,8.75,72074.8,-8.39,-34.41,-35.23,0,*53
1514354593.85,33236,8.75,72078.3,-8.39,-34.19,-34.77,0,*5D
1514354595.13,33237,8.75,72086.0,-8.39,-32.85,-32.75,0,*5B
1514354596.4,33238,8.75,72080.8,-8.35,-34.07,-35.35,0,*57
1514354597.64,33239,8.75,72072.0,-8.37,-35.07,-35.59,0,*5F
1514354598.89,33240,8.75,72072.5,-8.37,-35.53,-35.83,0,*57
1514354600.12,33241,8.75,72074.5,-8.37,-35.17,-35.35,0,*5B
1514354601.38,33242,8.75,72082.0,-8.39,-34.89,-35.07,0,*51
1514354602.63,33243,8.75,72086.0,-8.39,-34.89,-35.23,0,*56
1514354603.84,33244,8.75,72098.5,-8.37,-35.01,-35.17,0,*59
1514354605.07,33245,8.75,72100.3,-8.37,-35.17,-35.35,0,*5F
1514354606.33,33246,8.75,72106.5,-8.37,-35.41,-35.41,0,*5C
1514354607.59,33247,8.75,72102.5,-8.35,-35.59,-35.83,0,*58
1514354608.84,33248,8.75,72104.5,-8.37,-35.41,-35.53,0,*51
1514354610.04,33249,8.75,72092.5,-8.37,-35.17,-35.17,0,*53
1514354611.26,33250,8.75,72098.3,-8.37,-35.17,-35.01,0,*5C
1514354612.51,33251,8.75,72094.3,-8.37,-34.83,-34.83,0,*5A
1514354613.76,33252,8.75,72094.3,-8.37,-35.07,-35.01,0,*5F
1514354614.97,33253,8.75,72102.5,-8.37,-35.01,-35.01,0,*58
1514354616.23,33254,8.75,72106.0,-8.37,-34.35,-34.83,0,*52
1514354617.47,33255,8.75,72098.5,-8.37,-33.43,-34.47,0,*5D
1514354618.69,33256,8.75,72100.0,-8.37,-33.55,-34.31,0,*58
1514354619.9,33257,8.75,72108.5,-8.37,-34.47,-34.25,0,*58
1514354621.18,33258,8.75,72108.8,-8.35,-35.07,-34.35,0,*51
1514354622.41,33259,8.75,72110.3,-8.37,-35.23,-34.13,0,*50
1514354623.64,33260,8.75,72120.0,-8.35,-35.17,-33.95,0,*56
1514354624.89,33261,8.75,72124.3,-8.37,-35.41,-33.89,0,*5B
1514354626.12,33262,8.75,72122.5,-8.37,-35.17,-33.61,0,*5D
1514354627.33,33263,8.75,72118.5,-8.37,-34.89,-33.37,0,*59
1514354628.59,33264,8.75,72122.5,-8.37,-34.53,-32.97,0,*52
1514354629.84,33265,8.75,72120.5,-8.37,-34.53,-32.51,0,*59
1514354631.1,33266,8.75,72122.3,-8.37,-34.83,-32.19,0,*5B
1514354632.37,33267,8.75,72118.3,-8.39,-34.35,-31.45,0,*53
1514354633.6,33268,8.75,72116.3,-8.39,-34.59,-32.57,0,*56
1514354634.87,33269,8.75,72118.8,-8.39,-35.07,-32.91,0,*57
1514354636.09,33270,8.75,72118.3,-8.39,-34.41,-32.57,0,*56
1514354637.33,33271,8.75,72118.0,-8.39,-33.67,-31.67,0,*54
1514354638.62,33272,8.75,72118.8,-8.39,-33.49,-32.75,0,*5B
1514354639.88,33273,8.75,72112.8,-8.39,-35.29,-34.01,0,*5F
1514354641.1,33274,8.75,72108.8,-8.41,-34.89,-33.61,0,*5D
1514354642.34,33275,8.75,72112.3,-8.41,-34.41,-34.53,0,*5E
1514354643.6,33276,8.75,72114.0,-8.41,-35.07,-34.95,0,*54
1514354644.82,33277,8.75,72110.3,-8.41,-36.07,-35.89,0,*5A
1514354646.04,33278,8.75,72106.8,-8.41,-36.07,-35.89,0,*55
1514354647.3,33279,8.75,72100.3,-8.41,-35.83,-35.23,0,*5B
1514354648.56,33280,8.75,72098.8,-8.43,-35.89,-34.95,0,*59
1514354649.8,33281,8.75,72096.3,-8.43,-36.07,-35.29,0,*5B
1514354651.05,33282,8.75,72094.3,-8.43,-35.89,-35.65,0,*55
1514354652.31,33283,8.75,72092.0,-8.43,-35.77,-35.65,0,*55
1514354653.55,33284,8.75,72104.5,-8.43,-35.89,-35.77,0,*50
1514354654.78,33285,8.75,72104.0,-8.43,-36.07,-36.07,0,*50
1514354656.06,33286,8.75,72102.5,-8.43,-36.13,-36.13,0,*53
1514354657.33,33287,8.75,72092.0,-8.45,-36.25,-36.13,0,*51
1514354658.57,33288,8.75,72084.0,-8.43,-36.07,-35.77,0,*59
1514354659.81,33289,8.75,72080.0,-8.45,-35.47,-34.95,0,*54
1514354661.07,33290,8.75,72092.5,-8.43,-34.19,-33.37,0,*5F
1514354662.3,33291,8.75,72090.8,-8.43,-33.67,-32.13,0,*57
1514354663.58,33292,8.75,72082.3,-8.43,-32.63,-31.39,0,*5A
1514354664.85,33293,8.75,72082.0,-8.41,-34.19,-33.43,0,*5D
1514354666.08,33294,8.75,72068.0,-8.41,-34.89,-34.19,0,*5B
1514354667.33,33295,8.75,72064.5,-8.43,-35.13,-34.95,0,*5E
1514354668.58,33296,8.75,72064.8,-8.45,-35.71,-35.95,0,*5E
1514354669.84,33297,8.75,72060.5,-8.43,-36.07,-36.13,0,*56
1514354671.1,33298,8.75,72070.0,-8.43,-36.07,-36.25,0,*5C
1514354672.38,33299,8.75,72070.3,-8.43,-35.95,-36.13,0,*50
1514354673.64,33300,8.75,72062.5,-8.43,-36.13,-36.31,0,*5C
1514354674.87,33301,8.75,72062.0,-8.43,-36.31,-36.43,0,*58
1514354676.11,33302,8.75,72058.8,-8.45,-36.13,-36.43,0,*5D
1514354677.35,33303,8.75,72088.0,-8.45,-36.07,-36.25,0,*59
1514354678.6,33304,8.75,72084.8,-8.45,-35.89,-36.13,0,*5E
1514354679.83,33305,8.75,72064.3,-8.45,-35.35,-35.71,0,*5F
1514354681.06,33306,8.75,72070.5,-8.45,-35.71,-35.89,0,*5B
1514354682.34,33307,8.75,72072.8,-8.43,-35.95,-36.25,0,*53
1514354683.63,33308,8.75,72070.3,-8.43,-35.95,-36.13,0,*59
1514354684.9,33309,8.75,72086.5,-8.43,-35.89,-35.95,0,*58
1514354686.15,33310,8.75,72090.0,-8.43,-35.89,-36.13,0,*5D
1514354687.39,33311,8.75,72080.5,-8.43,-35.77,-36.07,0,*58
1514354688.62,33312,8.75,72076.5,-8.45,-35.53,-35.71,0,*59
1514354689.85,33313,8.75,72056.8,-8.43,-35.71,-36.07,0,*5C
1514354691.12,33314,8.75,72060.3,-8.43,-35.53,-35.65,0,*5C
1514354692.37,33315,8.75,72064.5,-8.43,-35.65,-35.77,0,*5B
1514354693.63,33316,8.75,72060.8,-8.43,-35.65,-35.77,0,*58
1514354694.88,33317,8.75,72066.0,-8.43,-35.53,-35.71,0,*5A
1514354696.12,33318,8.75,72070.8,-8.41,-34.95,-35.13,0,*58
1514354697.41,33319,8.75,72070.3,-8.43,-34.65,-34.95,0,*5B
1514354698.64,33320,8.75,72076.5,-8.41,-34.31,-34.41,0,*5B
1514354699.86,33321,8.75,72070.3,-8.41,-34.71,-34.77,0,*5B
1514354701.12,33322,8.75,72060.0,-8.39,-34.59,-34.95,0,*51
1514354702.36,33323,8.75,72070.8,-8.39,-34.59,-34.77,0,*5C
1514354703.6,33324,8.75,72068.0,-8.39,-34.89,-35.13,0,*55
1514354704.86,33325,8.75,72074.5,-8.39,-34.95,-35.13,0,*59
1514354706.12,33326,8.75,72072.0,-8.39,-34.95,-35.13,0,*5A
1514354707.35,33327,8.75,72084.0,-8.37,-35.41,-35.59,0,*53
1514354708.58,33328,8.75,72076.8,-8.37,-35.53,-35.77,0,*53
1514354709.81,33329,8.75,72080.3,-8.37,-35.59,-35.65,0,*5B
1514354711.07,33330,8.75,72104.0,-8.39,-35.65,-36.01,0,*53
1514354712.28,33331,8.75,72086.3,-8.41,-35.47,-35.59,0,*53
1514354713.51,33332,8.75,72094.8,-8.39,-35.13,-35.47,0,*51
1514354714.77,33333,8.75,72098.0,-8.39,-35.23,-35.47,0,*53
1514354716.05,33334,8.75,72080.3,-8.39,-35.07,-35.23,0,*50
1514354717.28,33335,8.75,72090.5,-8.37,-35.17,-35.41,0,*5A
1514354718.51,33336,8.75,72080.3,-8.37,-35.17,-35.35,0,*5A
1514354719.77,33337,8.75,72092.5,-8.37,-35.23,-35.41,0,*5F
1514354721.0,33338,8.75,72086.5,-8.37,-35.41,-35.59,0,*5D
1514354722.24,33339,8.75,72088.8,-8.37,-35.59,-35.83,0,*52
1514354723.49,33340,8.75,72072.5,-8.37,-35.23,-35.53,0,*5C
1514354724.72,33341,8.75,72094.0,-8.37,-35.41,-35.59,0,*53
1514354725.98,33342,8.75,72082.0,-8.37,-35.23,-35.41,0,*5D
1514354727.21,33343,8.75,72082.5,-8.37,-35.35,-35.59,0,*52
1514354728.44,33344,8.75,72086.8,-8.37,-35.41,-35.59,0,*56
1514354729.69,33345,8.75,72080.0,-8.37,-35.35,-35.53,0,*5E
1514354730.96,33346,8.75,72086.0,-8.37,-35.65,-35.95,0,*52
1514354732.22,33347,8.75,72090.3,-8.37,-35.83,-36.13,0,*56
1514354733.48,33348,8.75,72094.0,-8.37,-35.65,-35.95,0,*5C
1514354734.71,33349,8.75,72098.0,-8.37,-35.59,-35.83,0,*55
1514354735.97,33350,8.75,72086.3,-8.37,-35.83,-36.13,0,*50
1514354737.22,33351,8.75,72094.5,-8.37,-35.41,-35.65,0,*5D
1514354738.43,33352,8.75,72090.3,-8.41,-35.13,-35.29,0,*50
1514354739.7,33353,8.75,72090.5,-8.39,-34.77,-35.07,0,*51
1514354740.93,33354,8.75,72100.3,-8.39,-34.59,-34.89,0,*5D
1514354742.16,33355,8.75,72096.3,-8.37,-34.13,-34.35,0,*5B
1514354743.42,33356,8.75,72102.3,-8.35,-34.07,-34.31,0,*5B
1514354744.67,33357,8.75,72108.8,-8.35,-34.25,-34.31,0,*5A
1514354745.95,33358,8.75,72112.3,-8.35,-34.47,-34.65,0,*50
1514354747.16,33359,8.75,72116.0,-8.33,-34.41,-34.77,0,*52
1514354748.39,33360,8.75,72116.3,-8.29,-34.19,-34.25,0,*59
1514354749.64,33361,8.75,72122.5,-8.33,-34.01,-34.19,0,*55
1514354750.9,33362,8.75,72118.0,-8.29,-34.01,-34.19,0,*5D
1514354752.13,33363,8.75,72116.5,-8.29,-33.89,-34.07,0,*54
1514354753.36,33364,8.75,72116.3,-8.33,-34.01,-34.25,0,*5F
1514354754.59,33365,8.75,72104.3,-8.29,-34.01,-34.25,0,*55
1514354755.8,33366,8.75,72104.8,-8.25,-34.13,-34.25,0,*59
1514354757.05,33367,8.75,72104.8,-8.27,-34.25,-34.53,0,*5E
1514354758.27,33368,8.75,72098.8,-8.25,-34.71,-34.89,0,*55
1514354759.53,33369,8.75,72094.5,-8.25,-34.95,-35.23,0,*5F
1514354760.79,33370,8.75,72098.3,-8.25,-34.95,-35.23,0,*57
1514354762.02,33371,8.75,72080.0,-8.27,-35.47,-35.71,0,*5D
1514354763.27,33372,8.75,72088.5,-8.27,-35.65,-36.01,0,*5A
1514354764.5,33373,8.75,72074.0,-8.27,-36.19,-36.43,0,*55
1514354765.77,33374,8.75,72060.0,-8.27,-36.25,-36.43,0,*5D
1514354767.0,33375,8.75,72046.0,-8.29,-35.53,-35.77,0,*54
1514354768.23,33376,8.75,72058.8,-8.33,-35.35,-35.71,0,*5A
1514354769.44,33377,8.75,72056.3,-8.29,-35.47,-35.59,0,*5F
1514354770.7,33378,8.75,72080.8,-8.29,-35.35,-35.53,0,*5F
1514354771.92,33379,8.75,72064.5,-8.29,-35.13,-35.29,0,*57
1514354773.15,33380,8.75,72092.0,-8.29,-35.35,-35.59,0,*52
1514354774.39,33381,8.75,72090.3,-8.29,-35.53,-35.89,0,*5E
1514354775.59,33382,8.75,72088.0,-8.33,-35.47,-35.59,0,*5E
1514354776.81,33383,8.75,72082.0,-8.29,-35.13,-35.47,0,*5A
1514354778.05,33384,8.75,72082.0,-8.29,-34.83,-35.01,0,*57
1514354779.29,33385,8.75,72090.3,-8.29,-34.41,-34.65,0,*5B
1514354780.53,33386,8.75,72080.8,-8.29,-34.31,-34.59,0,*50
1514354781.76,33387,8.75,72092.8,-8.29,-34.25,-34.31,0,*5A
1514354783.01,33388,8.75,72094.5,-8.27,-34.13,-34.35,0,*5A
1514354784.3,33389,8.75,72096.8,-8.27,-34.95,-35.07,0,*55
1514354785.56,33390,8.75,72118.5,-8.25,-35.23,-35.41,0,*51
1514354786.82,33391,8.75,72116.5,-8.23,-35.23,-35.47,0,*50
1514354788.1,33392,8.75,72116.8,-8.27,-34.95,-35.07,0,*5F
1514354789.34,33393,8.75,72114.0,-8.25,-34.71,-35.07,0,*56
1514354790.58,33394,8.75,72110.3,-8.27,-34.77,-35.13,0,*50
1514354791.86,33395,8.75,72108.5,-8.27,-34.95,-35.23,0,*5E
1514354793.11,33396,8.75,72106.8,-8.25,-34.77,-34.95,0,*5F
1514354794.34,33397,8.75,72096.0,-8.25,-34.53,-34.89,0,*55
1514354795.55,33398,8.75,72094.3,-8.25,-34.59,-34.89,0,*50
1514354796.76,33399,8.75,72096.5,-8.25,-34.89,-35.13,0,*5E
1514354798.0,33400,8.75,72100.3,-8.25,-34.77,-34.95,0,*57
1514354799.26,33401,8.75,72092.8,-8.27,-34.35,-34.71,0,*58
1514354800.52,33402,8.75,72084.8,-8.25,-34.35,-34.53,0,*59
1514354801.78,33403,8.75,72088.3,-8.23,-34.35,-34.71,0,*5E
1514354802.99,33404,8.75,72088.0,-8.25,-34.41,-34.71,0,*5C
1514354804.2,33405,8.75,72078.3,-8.25,-34.77,-34.77,0,*5E
1514354805.41,33406,8.75,72076.0,-8.21,-34.89,-34.89,0,*59
1514354806.67,33407,8.75,72072.8,-8.23,-35.07,-35.17,0,*5B
1514354807.93,33408,8.75,72084.0,-8.23,-34.89,-35.07,0,*52
1514354809.19,33409,8.75,72092.8,-8.23,-35.07,-35.17,0,*55
1514354810.47,33410,8.75,72106.5,-8.23,-35.35,-35.35,0,*5C
1514354811.71,33411,8.75,72104.0,-8.25,-35.23,-35.13,0,*58
1514354812.94,33412,8.75,72106.0,-8.25,-35.47,-35.23,0,*5A
1514354814.19,33413,8.75,72104.0,-8.27,-35.29,-35.07,0,*57
1514354815.43,33414,8.75,72112.0,-8.25,-35.07,-34.89,0,*59
1514354816.67,33415,8.75,72112.3,-8.25,-34.95,-34.71,0,*55
1514354817.87,33416,8.75,72116.8,-8.25,-34.59,-34.41,0,*55
1514354819.1,33417,8.75,72124.8,-8.25,-34.25,-34.19,0,*52
1514354820.31,33418,8.75,72120.0,-8.25,-33.83,-33.95,0,*55
1514354821.53,33419,8.75,72116.8,-8.25,-33.43,-33.83,0,*5F
1514354822.74,33420,8.75,72106.0,-8.25,-33.83,-34.41,0,*50
1514354823.97,33421,8.75,72100.8,-8.25,-33.83,-34.35,0,*52
1514354825.18,33422,8.75,72098.3,-8.25,-34.13,-34.71,0,*5F
1514354826.38,33423,8.75,72098.0,-8.25,-34.25,-34.89,0,*5C
1514354827.58,33424,8.75,72092.8,-8.25,-34.25,-34.89,0,*5B
1514354828.79,33425,8.75,72094.5,-8.25,-34.25,-34.89,0,*5A
1514354830.03,33426,8.75,72094.5,-8.25,-34.41,-34.95,0,*56
1514354831.29,33427,8.75,72090.3,-8.27,-34.59,-35.07,0,*56
1514354832.55,33428,8.75,72082.8,-8.25,-34.53,-35.07,0,*51
1514354833.77,33429,8.75,72082.3,-8.25,-34.71,-35.13,0,*55
1514354835.03,33430,8.75,72076.5,-8.27,-34.77,-35.07,0,*5C
1514354836.27,33431,8.75,72076.3,-8.27,-34.77,-35.13,0,*58
1514354837.48,33432,8.75,72074.0,-8.25,-34.59,-34.89,0,*57
1514354838.71,33433,8.75,72076.8,-8.25,-34.35,-34.59,0,*51
1514354839.96,33434,8.75,72078.3,-8.27,-34.35,-34.41,0,*5D
1514354841.22,33435,8.75,72074.5,-8.27,-34.01,-33.95,0,*55
1514354842.44,33436,8.75,72068.8,-8.29,-33.37,-33.37,0,*52
1514354843.68,33437,8.75,72068.5,-8.29,-32.75,-32.91,0,*59
1514354844.94,33438,8.75,72074.0,-8.29,-31.39,-31.95,0,*5A
1514354846.16,33439,8.75,72074.5,-8.29,-29.83,-31.33,0,*5F
1514354847.41,33440,8.75,72070.5,-8.29,-28.09,-30.83,0,*58
1514354848.68,33441,8.75,72058.5,-8.29,-26.55,-30.77,0,*55
1514354849.92,33442,8.75,72062.8,-8.29,-25.39,-31.23,0,*5F
1514354851.15,33443,8.75,72036.3,-8.29,-24.87,-32.13,0,*5A
1514354852.39,33444,8.75,72030.5,-8.29,-24.57,-32.45,0,*53
1514354853.65,33445,8.75,72036.0,-8.29,-25.45,-33.09,0,*59
1514354854.89,33446,8.75,72040.8,-8.29,-27.07,-33.73,0,*53
1514354856.09,33447,8.75,72034.3,-8.29,-29.07,-34.25,0,*58
1514354857.33,33448,8.69,72038.8,-8.29,-31.05,-34.95,0,*57
1514354858.59,33449,8.75,72040.0,-8.29,-32.75,-35.53,0,*59
1514354859.81,33450,8.75,72040.8,-8.29,-33.67,-35.77,0,*55
1514354861.02,33451,8.75,72044.8,-8.33,-34.41,-36.07,0,*58
1514354862.3,33452,8.75,72038.5,-8.29,-34.95,-35.95,0,*51
1514354863.52,33453,8.75,72040.0,-8.33,-35.01,-35.77,0,*5B
1514354864.75,33454,8.75,72038.0,-8.33,-35.13,-35.53,0,*59
1514354865.98,33455,8.75,72046.8,-8.33,-35.17,-35.53,0,*5C
1514354867.2,33456,8.75,72058.3,-8.33,-35.47,-35.77,0,*5C
1514354868.43,33457,8.75,72046.5,-8.33,-35.53,-35.89,0,*59
1514354869.66,33458,8.75,72042.5,-8.33,-35.53,-35.77,0,*57
1514354870.92,33459,8.75,72040.3,-8.33,-35.35,-35.53,0,*50
1514354872.15,33460,8.75,72032.8,-8.33,-35.53,-35.77,0,*5C
1514354873.38,33461,8.75,72052.8,-8.33,-35.53,-35.77,0,*5D
1514354874.62,33462,8.75,72060.8,-8.33,-35.53,-35.89,0,*5F
1514354875.86,33463,8.75,72072.5,-8.33,-35.29,-35.53,0,*54
1514354877.11,33464,8.75,72076.0,-8.33,-35.35,-35.53,0,*5E
1514354878.32,33465,8.75,72068.8,-8.33,-35.17,-35.47,0,*5A
1514354879.57,33466,8.75,72078.5,-8.35,-35.41,-35.59,0,*53
1514354880.83,33467,8.75,72082.5,-8.33,-35.35,-35.53,0,*5D
1514354882.04,33468,8.75,72086.8,-8.33,-35.29,-35.47,0,*5A
1514354883.27,33469,8.75,72088.5,-8.33,-35.17,-35.35,0,*53
1514354884.51,33470,8.75,72090.8,-8.33,-34.59,-34.83,0,*5C
1514354885.74,33471,8.75,72098.0,-8.33,-34.59,-34.83,0,*5D
1514354886.98,33472,8.75,72104.3,-8.29,-34.59,-34.83,0,*55
1514354888.26,33473,8.75,72110.8,-8.29,-34.65,-34.95,0,*5C
1514354889.46,33474,8.75,72116.0,-8.29,-34.41,-34.41,0,*54
1514354890.69,33475,8.75,72120.0,-8.29,-34.07,-34.19,0,*5A
1514354891.93,33476,8.75,72120.5,-8.29,-33.83,-33.89,0,*5C
1514354893.17,33477,8.75,72120.3,-8.29,-33.83,-33.89,0,*5D
1514354894.4,33478,8.75,72120.3,-8.27,-33.83,-33.95,0,*51
1514354895.63,33479,8.75,72112.8,-8.25,-34.01,-33.83,0,*58
1514354896.87,33480,8.75,72114.5,-8.27,-34.13,-33.67,0,*55
1514354898.11,33481,8.75,72110.3,-8.25,-33.83,-33.31,0,*5B
1514354899.37,33482,8.75,72100.3,-8.25,-34.01,-33.31,0,*55
1514354900.6,33483,8.75,72100.8,-8.25,-34.25,-33.31,0,*52
1514354901.84,33484,8.75,72100.0,-8.27,-34.77,-33.67,0,*53
1514354903.08,33485,8.75,72100.0,-8.25,-34.77,-33.49,0,*5C
1514354904.37,33486,8.75,72110.0,-8.27,-34.53,-33.43,0,*51
1514354905.6,33487,8.75,72112.3,-8.27,-34.41,-33.83,0,*5F